Tracking 30995 objects as of 5-Jul-2025
HD Live streaming from Space Station
objects crossing your sky now

INTELSAT 505

Track INTELSAT 505 now!
INTELSAT 505 is classified as:


NORAD ID: 13595
Int'l Code: 1982-097A
Perigee: 36,259.6 km
Apogee: 36,391.5 km
Inclination: 12.6 °
Period: 1,463.3 minutes
Semi major axis: 42696 km
RCS: 0.1428 m2 (medium)
Launch date: September 28, 1982
Source: International Telecommunications Satellite Organization (ITSO)
Launch site: AIR FORCE EASTERN TEST RANGE (AFETR)
Your satellite tracking list
THORAD DELTA 1 DEB
Track 1 satellite(s)




NASA's NSSDC Master Catalog

Two Line Element Set (TLE):
1 13595U 82097A   25186.21404944  .00000005  00000-0  00000+0 0  9993
2 13595  12.5611 333.5736 0015447  50.3650 227.7934  0.98404381124672
Source of the keplerian elements: AFSPC